Voltar ao catálogo

STARLINK-30921

AtivoComunicaçõesVLEO
NORAD 58383·PAYLOAD·🇺🇸 United States

Lançado Nov 20, 2023 de Vandenberg Space Force Base

Loading…

Próximas Passagens (próximas 24 horas)

TLE

AtualizadoSource: CelesTrak SupGP

Época: Sep 15, 2026, 02:54 UTC

1 58383C 23178K   26258.12131944 -.00028380  00000+0 -83937-3 0  2589
2 58383  53.1573 197.0536 0001290  85.2066 235.5406 15.34372113    19

Acompanhe STARLINK-30921 em tempo real com AllMySat

Download on the App Store